Volver al catálogo

SL-14 DEB

ActivoPO
NORAD 47084·DEBRIS·🇷🇺 Russia

Lanzado Aug 15, 1991 desde Plesetsk Cosmodrome

Loading…

Próximos Pases (próximas 24 horas)

TLE

EnvejeciendoSource: Space-Track

Época: Sep 10, 2026, 23:54 UTC

1 47084U 91056DJ  26253.99627467  .00010743  00000-0  16328-1 0  9998
2 47084  82.6272 102.8586 0151039  92.0321 269.8123 13.47615109119209

Sigue SL-14 DEB en tiempo real con AllMySat

Download on the App Store